Wind_Speed
42 42 42 39 39 40 41 41 42 43 44 45 45 45 44 43 42 42 42 43 44 43 42 41 42 42 39 34 31 35 37 35 36 38 37 36 35 34 33 32 32 31 31 30 30 30 30 31 31 31 32 32 33 33 34 35 35 36 36 36 36 36 36 37 38 39 39 40 40 40 41 42 43 43 44 44 45 46 47 48 49 49 49 49 49 50
42 43 41 40 42 42 41 41 42 43 43 43 43 42 41 41 41 41 41 42 43 43 43 43 43 42 40 37 35 36 36 35 37 38 36 35 35 36 35 35 34 34 33 33 33 32 33 33 34 34 35 35 35 35 36 38 39 39 39 39 39 39 39 39 39 40 41 41 42 42 43 43 44 45 45 46 46 46 47 48 49 50 50 50 50 51
43 42 41 41 41 40 39 40 40 40 40 40 40 40 38 39 40 40 40 41 42 42 43 43 43 41 39 38 37 37 36 37 38 38 35 35 37 38 38 38 38 38 38 38 38 38 37 37 38 38 38 38 38 38 38 39 41 42 42 42 42 42 42 42 42 42 42 42 42 43 44 44 45 46 46 46 47 47 48 49 49 49 50 50 50 50
39 38 38 38 37 36 36 36 36 37 37 38 38 38 37 38 40 40 39 40 41 42 43 43 43 41 37 37 38 36 36 38 39 39 39 38 39 39 39 39 40 40 41 42 42 43 43 42 41 41 41 41 41 41 41 41 41 42 43 43 43 43 43 43 44 44 43 42 42 43 44 45 46 47 48 48 48 48 49 49 50 50 51 51 52 52
35 36 37 36 35 35 34 35 35 36 37 37 37 37 37 38 39 40 40 40 41 42 43 44 45 44 39 38 39 39 39 40 40 41 41 41 40 40 40 40 41 43 44 44 45 45 45 44 44 43 42 41 41 41 41 40 40 40 41 42 43 43 43 43 44 45 44 42 41 41 42 44 46 48 49 50 50 50 50 51 51 52 53 53 54 54
34 35 36 36 36 35 34 34 35 36 37 37 36 37 39 39 40 41 42 43 43 43 44 45 47 47 43 42 43 42 43 42 42 42 41 41 42 42 42 43 44 44 45 46 46 46 46 45 44 44 43 42 40 40 40 39 38 38 38 41 42 42 43 43 44 45 44 41 40 40 42 44 45 47 49 50 51 52 53 53 53 54 54 55 55 56
34 35 36 36 36 36 34 34 34 37 37 36 36 38 41 42 42 43 44 46 47 47 47 47 47 48 48 46 45 46 46 45 43 43 42 43 43 44 45 46 47 47 47 47 47 48 48 47 45 45 44 42 40 38 37 37 36 36 37 39 41 42 43 44 45 45 43 40 40 41 44 45 46 47 48 49 51 53 54 55 55 56 56 56 57 57
35 35 35 35 36 35 34 34 35 37 37 38 39 40 42 43 45 46 46 48 49 50 51 51 48 49 51 50 48 49 48 47 45 45 45 46 47 47 48 49 49 49 49 49 48 48 48 48 47 45 44 43 41 38 37 36 35 35 36 38 40 42 43 45 47 46 44 43 44 47 49 49 49 48 48 49 50 52 54 55 56 57 57 58 58 58
35 34 34 35 35 34 35 36 37 38 40 41 42 42 43 44 46 47 48 49 50 51 53 51 46 49 52 51 51 51 50 49 48 48 48 48 49 50 50 50 50 51 49 49 49 47 47 47 46 45 44 44 43 40 38 37 36 36 37 39 41 43 43 44 48 49 49 48 48 51 54 54 53 52 51 50 50 51 52 54 56 57 58 59 59 60
34 33 34 34 33 34 36 37 39 40 42 43 43 44 45 45 46 47 48 49 49 52 53 48 45 48 52 52 52 52 51 51 51 51 51 50 50 49 49 49 49 50 49 49 49 48 46 45 46 46 45 44 44 42 40 38 38 38 39 41 43 45 46 46 48 51 54 53 51 53 56 56 57 57 56 55 53 52 52 53 55 56 58 59 60 61
34 34 35 34 35 37 38 39 40 40 41 42 43 44 44 46 47 47 48 48 50 53 51 46 46 49 53 54 54 53 53 53 53 53 52 51 50 49 48 48 48 49 49 49 48 48 48 46 46 46 46 46 45 44 43 42 41 41 42 44 46 48 49 50 51 53 56 56 55 56 56 57 58 60 61 61 59 58 56 55 55 56 57 58 60 61
36 37 37 38 39 40 39 39 40 40 41 41 43 44 45 47 49 49 50 50 51 52 50 49 50 53 55 55 54 55 56 56 55 54 53 51 50 49 47 47 48 48 49 49 48 48 49 49 48 48 48 48 48 48 47 47 46 46 46 47 48 51 52 54 54 55 56 58 58 58 58 58 60 61 63 65 64 64 62 61 59 58 59 59 60 61
41 42 42 43 43 43 42 41 42 42 42 43 44 45 47 49 50 52 52 51 52 52 51 52 54 56 57 56 55 56 56 55 55 53 52 51 50 49 48 48 49 49 49 49 49 50 50 50 50 50 50 51 51 51 51 51 52 52 52 51 51 53 55 57 58 58 59 60 62 62 63 64 65 65 65 67 67 67 68 68 67 64 63 62 63 64
47 47 47 46 46 46 45 45 45 46 46 47 47 47 49 50 52 53 52 53 54 53 53 55 57 60 59 57 56 55 54 54 54 52 51 50 50 50 50 50 50 51 51 51 51 52 52 52 52 53 53 53 54 54 54 54 55 55 56 55 55 56 57 59 62 63 63 64 66 67 67 68 70 69 68 69 70 70 71 73 73 71 69 66 66 66
51 52 50 48 47 47 46 46 47 48 49 49 49 49 51 51 52 53 53 55 56 56 57 58 60 61 59 56 55 54 53 53 52 51 50 49 51 52 52 52 52 52 52 53 53 53 53 53 54 55 55 55 55 56 56 56 57 57 58 58 58 58 59 61 63 65 67 68 69 69 68 69 70 70 69 70 71 72 74 76 75 74 73 71 70 69
53 54 53 50 48 47 45 45 46 47 48 49 49 51 52 51 51 54 56 57 58 58 58 57 59 59 56 53 52 52 52 51 50 49 49 50 52 52 52 52 53 53 53 53 54 54 54 55 56 57 56 56 57 57 58 58 58 58 59 59 60 60 60 61 63 65 67 69 69 69 68 68 68 68 69 70 71 72 74 75 74 74 74 73 72 72
55 57 55 52 51 49 47 46 46 46 48 50 50 51 52 52 53 56 58 57 57 59 57 54 55 55 53 51 50 49 49 49 49 49 50 51 52 52 53 54 54 54 54 54 54 54 56 57 58 57 57 57 58 58 58 58 59 59 59 60 60 61 61 62 63 65 66 68 69 69 69 68 67 67 67 69 71 72 72 73 73 73 72 71 70 70
55 56 56 54 53 52 50 49 48 48 49 50 50 50 51 53 54 55 56 56 56 58 57 52 52 52 52 51 49 48 48 48 49 50 51 51 52 53 54 55 55 55 55 55 55 57 58 58 58 58 57 57 57 57 56 56 56 57 58 58 58 59 60 61 62 63 64 65 65 66 66 67 67 67 68 69 71 72 73 74 75 76 76 76 74 72
52 54 55 55 53 52 51 51 51 50 49 49 49 49 50 52 53 53 54 55 55 57 57 53 51 51 52 51 49 48 48 49 50 50 50 51 52 54 55 55 55 55 55 56 57 58 59 58 58 57 54 52 52 53 52 52 51 52 53 54 56 58 60 61 62 62 62 62 61 62 63 63 64 66 69 72 73 75 76 76 77 78 79 81 81 81
51 52 54 54 52 51 51 51 50 50 49 49 50 50 50 51 52 52 53 54 55 57 57 56 54 52 50 50 49 49 48 49 50 51 51 52 52 54 55 55 55 56 56 57 58 59 59 56 55 54 52 51 51 52 51 52 53 54 54 54 56 58 59 61 62 62 63 63 63 63 64 65 65 66 68 71 73 75 77 79 80 81 82 83 84 86
50 52 53 51 50 51 51 50 49 48 49 50 50 50 50 51 52 53 54 54 55 57 57 57 57 53 49 50 51 51 50 51 51 52 52 52 53 54 55 56 56 56 57 58 59 59 58 55 52 53 55 56 57 58 59 61 62 64 64 63 62 62 62 62 64 65 65 66 66 67 69 70 70 70 71 72 73 75 76 78 80 82 83 84 85 87
51 52 52 51 50 50 50 50 49 49 50 51 51 50 50 51 52 55 56 55 54 57 58 58 60 55 50 51 53 52 51 52 52 51 50 51 52 54 55 56 57 58 59 59 60 60 59 57 56 57 58 60 61 63 65 67 67 68 69 68 68 68 68 69 70 71 72 72 73 75 77 79 80 80 80 80 81 81 81 82 83 84 85 86 87 88
53 53 53 53 52 51 51 52 52 51 52 52 52 51 51 53 54 55 57 55 55 58 59 60 62 58 52 52 53 52 51 52 51 50 51 52 53 55 56 58 59 60 60 61 61 62 63 63 63 63 64 65 66 66 68 69 70 71 72 73 73 74 75 76 77 77 78 79 80 81 83 85 86 87 87 87 87 87 88 88 88 89 90 90 91 92
55 55 55 55 54 53 53 54 54 53 53 53 53 53 53 54 54 55 57 57 57 59 59 60 62 60 55 53 54 54 53 53 52 53 53 54 55 56 58 59 59 60 60 61 62 63 64 65 67 68 68 69 70 70 71 72 73 74 75 76 77 77 78 79 80 81 82 83 84 86 87 88 89 90 91 91 91 91 91 92 92 93 93 93 94 94
56 57 57 57 57 56 55 55 55 54 52 52 53 53 54 54 54 56 57 58 60 60 58 59 62 61 57 55 53 53 54 53 53 53 53 54 55 57 58 58 59 60 61 62 63 63 63 64 66 67 68 69 70 72 74 75 76 77 77 79 80 81 83 84 85 87 88 89 89 90 91 91 91 91 92 92 92 92 92 92 92 92 93 93 93 94
57 57 58 58 58 59 58 56 55 53 53 53 54 54 54 55 56 58 59 60 62 61 58 59 61 59 55 54 53 53 54 53 53 54 54 55 57 59 59 60 60 61 61 62 62 62 63 65 66 68 70 71 73 74 76 78 79 80 82 83 85 86 87 88 88 89 89 90 90 90 90 90 91 91 91 91 92 92 92 92 92 92 93 93 93 93
57 58 58 58 59 59 58 56 56 56 55 55 55 55 55 56 57 59 62 64 64 63 62 61 61 59 56 54 55 56 55 55 56 56 57 58 59 61 61 61 61 61 62 63 64 65 66 68 70 72 73 75 76 77 79 80 81 82 84 85 86 86 87 87 88 88 89 89 90 90 91 91 91 92 92 93 93 93 94 94 95 95 95 96 96 96
59 59 59 58 59 58 58 58 59 59 58 58 58 57 56 57 59 62 64 64 63 64 65 62 60 61 58 54 55 57 56 56 57 57 59 60 61 62 62 62 62 63 64 65 66 68 70 71 73 74 76 77 78 79 80 81 82 83 84 85 86 87 87 88 88 89 89 90 90 91 91 92 93 93 94 95 96 97 98 98 99 100 100 101 101 101
59 60 59 59 59 59 59 60 60 60 61 61 60 59 57 57 60 63 65 63 62 64 66 62 60 61 60 55 56 57 58 58 59 60 61 61 61 61 61 61 62 63 64 65 67 68 70 71 73 75 76 77 78 79 80 81 82 83 84 85 86 87 88 89 89 90 91 91 92 92 93 94 95 95 96 96 97 97 98 99 100 101 102 103 103 104
59 60 60 60 61 60 60 61 62 62 63 62 61 60 59 59 61 63 63 61 61 63 63 60 60 61 59 57 57 58 59 61 62 61 60 59 59 59 60 61 62 63 65 66 67 69 70 72 74 75 77 78 79 80 81 82 83 84 85 86 87 89 90 91 91 92 93 94 94 95 95 95 96 96 95 95 95 95 95 95 95 96 96 97 98 99
60 61 61 61 62 62 61 61 62 62 63 63 62 61 61 62 62 62 61 61 62 63 61 60 62 62 58 57 58 59 60 62 61 60 59 58 59 60 61 63 64 65 67 68 70 71 72 74 75 76 77 78 79 81 82 83 84 85 87 88 89 90 92 93 94 94 95 96 96 96 96 95 95 94 93 93 92 91 91 90 90 89 89 90 90 91
60 61 62 62 63 63 61 61 62 62 63 64 64 61 60 60 61 60 60 61 62 63 63 63 64 63 58 57 59 60 60 60 60 59 60 60 61 62 63 65 67 68 70 71 72 73 74 75 76 77 78 79 81 82 83 85 86 87 88 89 90 92 92 93 94 93 93 93 92 92 91 90 89 88 88 87 86 86 85 85 84 84 84 84 84 85
60 61 62 62 63 63 61 61 62 62 65 66 63 59 56 56 59 60 59 59 60 62 64 65 64 62 59 59 60 59 59 59 60 60 61 62 63 64 65 67 69 71 72 73 74 74 75 77 78 79 80 81 83 84 85 86 86 87 87 88 89 89 89 89 88 87 86 84 83 82 81 81 80 79 79 79 79 79 79 79 80 80 81 81 81 82
61 61 61 61 62 62 61 60 61 63 67 66 59 55 54 56 59 60 59 58 59 61 63 63 63 62 61 60 59 58 59 60 61 62 63 64 65 66 68 70 71 73 73 74 75 76 77 78 80 81 82 83 83 83 84 84 84 83 83 83 83 82 81 80 79 77 76 75 74 73 73 72 72 73 73 74 74 75 76 77 78 79 80 80 80 81
61 61 61 61 61 61 60 59 63 66 66 61 56 54 56 58 59 59 59 58 58 60 62 63 63 62 61 60 59 59 60 61 63 64 65 66 67 69 71 72 73 74 74 75 76 77 79 80 82 82 83 82 82 82 81 80 79 78 77 76 75 74 72 71 70 69 68 68 68 68 68 69 69 70 71 72 74 75 76 77 78 79 80 80 80 80
61 61 61 60 61 61 61 62 65 66 62 57 56 55 56 57 58 59 60 58 56 59 62 62 61 60 60 60 60 61 63 64 65 67 68 69 69 70 72 73 73 74 75 76 78 79 80 81 81 81 81 80 79 78 77 74 72 70 69 68 67 66 66 65 64 64 64 64 65 66 67 68 69 71 72 73 74 76 77 78 78 79 79 79 79 79
59 60 59 59 60 60 62 63 64 65 63 58 54 54 55 57 58 60 62 59 55 58 61 61 60 60 61 62 63 64 66 67 68 68 69 70 71 72 73 73 74 75 77 78 79 80 80 79 78 77 76 75 73 72 70 67 65 64 63 62 62 61 61 61 61 62 62 64 65 66 68 69 70 72 73 74 75 76 77 78 78 78 79 78 77 76
57 57 56 58 59 58 60 63 63 65 64 56 51 53 56 59 60 61 63 60 56 57 61 61 62 63 63 64 65 66 67 69 69 70 71 72 72 73 74 75 76 77 78 78 78 77 76 75 73 71 69 68 66 65 63 62 60 60 60 59 59 59 59 59 60 61 63 65 66 67 69 70 71 72 73 75 76 77 77 77 77 77 78 77 76 76
56 55 55 57 58 58 59 62 63 65 63 56 53 55 58 60 60 62 64 62 57 57 61 62 63 64 65 65 66 67 69 71 71 71 73 74 74 75 75 76 77 78 77 76 75 72 70 68 66 65 63 62 61 60 59 58 58 58 58 57 57 57 57 59 60 62 64 65 67 68 70 71 72 73 74 75 76 76 76 76 76 76 77 77 76 75
55 55 55 57 58 58 59 62 64 64 62 58 56 57 58 60 61 62 65 63 59 59 62 63 64 65 66 67 69 70 71 72 72 73 75 76 75 76 77 77 77 76 74 71 69 66 64 62 60 59 59 58 58 58 57 57 57 57 56 56 57 57 58 60 61 63 64 66 67 69 70 72 73 74 75 75 75 75 75 75 75 75 74 73 72 71
56 56 57 58 59 59 61 63 64 64 61 59 59 58 59 61 63 64 63 61 60 62 64 65 66 68 69 70 71 71 72 73 73 74 76 76 76 76 76 75 73 70 67 64 61 59 58 57 56 56 56 57 57 57 57 57 56 56 56 56 57 58 59 61 62 64 65 67 68 70 71 73 74 74 75 74 74 74 73 73 72 71 70 69 68 67
56 57 58 59 60 61 61 63 65 65 61 58 58 59 61 64 65 63 61 61 63 66 67 68 70 70 71 72 72 72 73 73 74 75 75 75 75 74 72 70 66 63 59 57 55 53 53 53 54 54 55 55 56 56 55 56 56 56 57 57 58 59 61 62 63 65 66 68 69 71 72 73 73 74 73 74 73 72 71 69 69 68 67 66 65 63
57 58 60 60 60 61 61 63 66 66 61 58 60 62 64 65 64 63 64 66 68 69 69 71 71 71 72 72 72 73 74 74 74 74 73 72 70 68 65 62 58 55 52 51 50 50 50 51 52 53 54 54 55 55 55 56 56 57 58 59 60 61 63 64 65 66 68 69 70 71 72 72 72 73 73 72 72 70 68 67 66 66 65 63 60 56
59 59 60 60 60 62 63 65 67 65 63 65 67 66 66 66 65 65 67 68 69 69 70 71 70 71 72 72 72 73 73 72 71 70 69 67 65 61 58 54 51 49 47 47 47 48 49 50 51 52 53 54 54 55 55 56 57 58 59 60 62 63 64 65 67 68 68 70 71 71 71 71 72 72 71 70 69 67 66 66 65 63 60 57 53 50
60 58 59 61 63 64 65 67 68 67 67 69 68 66 64 65 66 67 68 68 69 70 70 70 70 71 72 72 72 71 70 69 67 65 63 61 58 54 52 49 47 45 45 45 47 48 49 50 51 52 53 53 54 55 56 57 58 59 61 62 63 64 65 66 68 68 69 70 70 71 71 71 70 69 68 68 67 66 65 64 61 57 54 50 48 46
59 59 60 62 64 66 67 68 68 68 67 67 66 63 62 63 64 65 66 68 69 69 68 69 69 69 69 69 68 67 66 64 61 59 57 54 51 48 47 45 44 43 43 45 46 47 48 49 50 51 52 54 55 56 57 59 60 61 62 63 64 65 66 67 68 68 69 69 70 70 70 69 68 67 66 66 66 65 62 59 56 51 48 46 44 42
59 59 62 64 65 67 70 69 67 66 65 64 62 61 61 61 62 63 64 66 66 65 65 66 65 64 63 63 62 61 59 57 55 53 51 48 47 45 44 42 42 42 44 45 46 47 49 50 51 53 54 55 57 58 59 60 62 62 63 64 65 66 67 68 68 68 68 69 69 69 69 67 66 65 64 64 63 61 56 53 50 46 43 42 40 38
60 61 64 67 68 70 71 69 65 63 62 61 59 58 58 58 59 60 62 62 61 61 61 60 58 57 57 56 55 54 52 50 48 47 46 45 45 44 42 42 42 43 45 46 47 49 51 52 53 54 55 57 58 59 60 61 62 63 64 65 66 67 68 68 68 68 68 68 68 67 67 66 65 64 63 62 59 54 49 47 45 41 39 38 36 34
62 64 66 66 67 69 68 63 59 57 57 56 54 54 53 54 55 56 57 57 56 56 55 54 52 52 51 50 49 48 46 44 43 43 43 43 43 43 42 42 43 44 45 47 48 50 52 54 55 56 57 58 59 60 61 62 63 64 65 66 67 68 68 68 68 67 67 66 66 66 66 65 64 63 61 57 51 46 42 42 40 37 34 35 34 32
62 64 64 64 67 67 62 56 52 52 51 49 47 48 50 50 51 51 50 50 50 49 49 49 49 48 47 45 44 43 42 41 40 41 41 42 42 43 43 43 44 45 46 47 49 51 52 54 55 56 57 58 59 60 61 63 64 65 66 66 67 68 68 68 67 66 65 65 65 65 65 64 63 60 55 48 42 38 36 37 39 37 33 31 32 31
61 63 62 62 63 60 54 49 46 46 46 44 44 46 48 47 47 47 46 46 46 46 47 47 46 44 43 41 40 39 39 38 39 40 40 41 42 43 43 44 44 45 47 48 50 51 52 53 54 56 57 58 60 61 62 63 65 66 66 67 67 67 67 67 66 64 64 64 64 64 64 62 59 54 46 39 35 33 31 31 35 37 35 32 32 31
Wind_Direction
277 278 279 281 280 277 277 279 280 281 283 285 287 287 288 288 288 289 290 290 290 291 292 292 291 291 291 291 291 292 294 295 295 293 293 293 291 289 286 284 283 282 281 281 282 283 284 285 285 284 284 284 285 286 286 286 286 286 286 286 285 283 280 277 274 272 271 269 268 267 266 265 264 263 262 261 260 260 260 261 262 262 262 262 262 262
278 278 280 279 277 277 278 279 279 281 282 283 284 284 286 287 287 288 289 289 289 288 288 287 287 287 289 290 290 291 292 292 291 290 290 291 290 289 289 288 288 288 287 287 286 285 284 285 285 285 285 284 283 283 284 284 285 285 285 285 285 284 282 279 275 272 271 270 268 267 266 266 265 264 264 263 262 260 259 259 260 261 261 262 261 261
278 279 280 278 278 279 279 278 279 280 280 281 282 283 285 286 287 287 287 287 287 286 286 285 285 286 287 288 288 288 289 289 288 288 288 288 287 289 290 291 293 294 295 295 295 293 291 290 289 289 288 288 287 286 285 284 284 284 284 284 284 284 283 281 277 273 270 268 268 267 267 266 266 265 265 265 263 262 261 260 259 259 259 260 260 260
279 280 280 280 280 279 278 278 279 279 280 281 282 284 286 286 285 285 286 286 286 285 286 286 285 286 288 288 288 288 288 287 288 288 289 289 289 291 293 295 297 298 299 299 299 298 298 297 296 295 294 294 294 293 291 289 287 286 285 285 284 283 282 281 279 276 272 269 268 267 267 267 267 266 266 266 265 264 263 262 261 261 260 260 260 260
279 280 280 280 280 279 279 279 280 281 282 282 284 286 286 285 285 285 285 284 284 284 285 286 287 287 287 287 288 288 288 288 289 291 293 295 296 297 298 299 300 300 300 300 300 299 299 300 299 298 297 296 296 294 293 290 288 286 285 284 283 281 279 278 276 274 272 270 270 269 268 268 267 267 266 266 266 266 265 263 262 262 261 261 261 261
276 276 277 278 278 278 278 279 280 281 282 284 286 286 285 284 284 284 283 283 283 282 283 284 286 287 288 288 289 289 289 291 293 295 296 297 298 299 300 300 299 299 299 299 299 299 299 299 298 297 296 295 294 292 290 287 284 281 279 278 278 277 276 274 272 271 270 270 271 272 272 270 268 267 266 266 266 266 266 265 264 263 262 261 261 261
272 273 274 275 276 277 277 278 279 281 283 284 283 283 284 283 282 282 283 284 284 284 284 284 285 287 288 289 291 291 290 292 294 296 297 297 298 299 300 300 299 298 298 298 299 299 298 298 297 296 295 294 292 289 287 283 279 275 271 270 270 270 270 269 269 267 265 265 269 274 275 273 271 269 267 266 265 266 266 266 266 264 263 262 261 260
270 271 272 273 275 277 278 279 280 282 284 283 281 280 281 281 282 282 283 283 284 285 286 286 287 289 289 290 291 291 291 293 295 295 296 298 299 299 300 299 298 298 298 298 298 297 296 296 295 294 293 293 291 289 285 281 277 272 269 266 264 265 265 266 266 264 261 262 268 274 276 274 272 270 269 269 266 265 265 265 266 266 265 264 262 261
269 270 271 272 274 276 278 280 283 285 285 284 282 280 280 280 280 280 281 281 283 283 284 286 288 289 289 290 291 291 293 295 296 297 298 299 299 298 298 297 296 297 297 296 295 294 294 293 292 292 291 290 289 287 284 281 277 272 269 266 262 261 262 264 266 264 263 262 265 272 275 274 274 272 271 271 269 267 266 265 265 265 266 266 265 263
270 271 270 272 274 276 279 282 285 285 284 284 283 282 281 280 279 279 280 280 281 282 286 288 288 288 288 289 290 292 294 295 296 298 298 298 297 296 295 295 295 295 295 294 293 292 291 290 289 289 289 288 287 285 280 277 274 270 269 268 263 260 259 261 263 263 264 263 262 268 272 272 273 273 273 273 271 268 267 266 265 264 265 265 265 265
274 274 274 277 278 280 283 284 285 283 283 283 283 283 282 281 282 281 281 282 281 284 288 289 286 286 287 288 290 292 293 295 296 297 296 295 294 294 294 294 293 293 292 292 291 290 289 288 288 287 287 286 285 283 279 275 272 268 267 266 264 261 258 258 260 261 262 263 262 265 267 267 268 270 271 273 273 271 269 268 266 265 264 264 265 265
277 278 279 280 282 284 286 285 284 283 283 283 282 282 281 282 283 282 282 282 282 286 289 287 285 284 285 288 290 291 293 295 295 294 293 292 292 292 292 292 291 290 289 288 287 287 287 286 286 285 284 284 283 282 279 276 273 271 268 266 263 262 260 258 258 259 261 262 262 264 264 263 264 265 266 269 271 272 272 272 270 268 266 265 264 264
279 280 281 283 286 288 287 286 285 284 282 281 280 280 279 280 280 280 281 281 282 285 285 283 283 283 284 287 288 289 291 291 290 290 290 290 290 290 290 289 288 287 286 285 284 284 284 283 283 282 282 282 281 279 278 276 275 273 271 269 265 261 260 258 258 258 259 261 262 263 263 262 264 265 264 264 266 269 271 273 273 272 270 268 266 265
279 279 281 284 286 286 285 285 284 282 280 279 278 278 277 277 277 278 280 281 281 282 280 280 281 282 284 286 287 287 287 286 286 286 286 286 287 286 286 285 285 284 284 283 283 282 281 281 281 281 281 280 279 278 277 275 274 273 271 270 268 264 260 258 258 258 259 261 263 264 264 263 264 265 264 262 263 264 267 270 272 273 273 271 269 268
277 278 280 281 281 282 281 280 279 278 277 277 276 275 275 276 277 278 279 278 278 278 278 279 280 281 284 285 284 284 283 282 282 282 283 283 283 283 283 282 282 282 281 280 279 279 278 279 279 280 279 278 277 276 275 274 273 272 272 271 269 267 265 262 260 259 260 262 265 266 265 265 265 265 264 263 262 263 264 266 268 271 273 273 272 270
277 279 280 281 280 280 278 275 274 274 274 274 274 274 275 276 276 276 275 275 276 276 277 278 279 281 283 282 282 281 280 280 280 281 281 281 280 280 281 281 280 279 278 277 276 276 277 278 278 278 277 277 276 275 275 274 273 273 273 272 271 270 269 267 266 265 265 266 267 267 267 266 265 264 263 262 262 262 263 264 266 268 270 271 272 271
279 280 281 281 281 279 277 275 273 272 272 272 273 274 275 275 273 273 274 275 275 274 276 278 278 279 280 279 280 279 279 280 280 279 279 278 279 279 279 279 277 276 275 274 274 275 275 277 277 276 275 275 275 274 274 274 274 274 273 273 273 273 272 271 270 269 269 268 268 268 267 266 265 263 263 262 262 261 261 262 263 264 266 267 268 268
279 280 280 280 280 279 278 277 274 272 271 272 273 272 272 271 271 272 273 273 273 273 275 276 276 276 277 279 280 278 277 277 276 276 276 277 277 277 276 275 275 274 273 273 274 275 276 276 275 275 275 276 276 276 275 275 275 274 274 273 273 273 274 273 272 271 269 269 268 268 267 266 264 262 262 262 262 262 261 260 261 261 262 263 264 265
278 278 278 278 279 279 279 278 276 275 275 273 272 270 268 269 270 270 271 272 272 272 273 275 274 275 277 279 279 277 275 274 273 273 273 273 273 273 273 272 272 272 271 272 274 275 276 275 275 276 276 276 275 273 272 272 272 271 272 273 273 271 270 270 270 269 267 267 267 267 266 265 264 262 261 260 261 262 262 262 262 262 261 261 262 263
276 275 275 277 277 277 277 276 276 276 275 273 270 269 269 269 269 269 269 271 271 271 272 274 275 277 279 279 278 275 273 272 272 271 271 272 272 272 271 270 270 270 270 272 274 275 275 274 275 275 273 269 266 264 263 263 263 264 264 266 267 265 264 263 263 263 263 263 263 263 263 262 262 262 261 260 260 260 261 262 263 263 263 263 263 263
277 276 277 278 277 277 276 276 275 273 271 270 269 270 271 271 271 270 270 271 271 271 272 273 274 277 279 278 275 274 273 272 271 270 271 272 271 271 270 269 268 268 269 271 273 273 272 271 270 269 267 265 262 261 261 262 263 264 265 265 264 262 262 262 261 262 264 264 264 264 265 265 266 266 266 265 265 265 264 264 264 265 265 265 265 265
280 279 279 279 278 278 277 275 273 271 270 269 269 270 271 271 271 270 271 273 273 272 273 273 273 276 279 277 274 273 272 272 271 271 271 270 269 269 268 268 268 269 269 271 272 271 269 267 266 266 266 266 265 264 265 266 267 267 268 268 267 265 264 264 264 264 265 266 265 266 267 269 270 271 272 272 272 272 271 271 270 270 269 269 269 268
280 279 279 279 279 278 275 273 272 270 270 270 271 272 272 271 270 270 271 273 272 270 272 272 272 275 279 277 275 274 273 271 271 271 271 269 268 268 268 268 269 269 269 270 270 270 269 268 267 267 266 266 266 265 266 268 269 270 271 272 272 272 271 271 270 270 270 270 270 270 271 272 273 273 274 274 274 275 275 275 275 274 274 273 273 272
279 279 278 278 277 275 273 273 272 271 272 273 273 273 272 271 271 270 270 270 268 267 268 269 269 274 278 277 276 276 275 274 273 272 271 270 269 268 268 268 268 268 268 269 269 270 270 269 269 269 269 269 268 268 269 270 272 273 274 275 275 275 275 275 275 275 274 275 275 275 275 275 275 275 275 276 276 276 277 276 276 276 275 275 274 274
278 277 277 277 277 276 275 274 274 274 274 273 271 271 270 270 270 269 270 269 267 266 266 266 268 273 276 276 276 275 274 274 273 272 271 270 270 269 269 268 268 268 269 271 272 271 270 270 270 270 271 271 272 272 272 273 274 275 276 276 277 277 276 276 276 276 276 276 276 277 276 276 276 276 276 276 276 276 276 276 276 275 275 274 274 273
276 275 275 276 276 277 277 276 274 273 271 269 269 270 270 271 271 271 271 270 268 269 267 267 270 273 275 276 277 275 273 273 272 271 270 270 270 270 270 270 270 271 272 273 273 272 272 271 271 271 272 273 274 274 275 276 276 277 277 278 278 278 277 277 277 278 278 278 278 278 278 278 277 277 277 276 276 276 275 275 275 275 274 274 274 273
276 275 275 275 275 276 276 274 272 270 269 269 269 269 270 271 271 271 270 269 269 270 270 270 274 275 274 276 277 275 273 272 271 271 271 271 271 271 270 270 271 271 271 272 271 272 272 272 273 273 274 275 276 277 277 278 278 279 279 279 279 279 279 279 279 279 280 280 280 280 280 280 280 280 279 279 278 278 278 277 277 277 276 276 276 275
276 275 275 274 274 274 273 271 270 270 270 269 269 269 269 270 270 270 269 268 270 271 271 274 276 275 275 276 276 275 275 274 274 273 272 272 272 273 273 273 273 272 272 272 272 272 273 274 275 276 276 277 277 278 279 279 279 280 280 280 280 281 281 281 281 281 281 281 281 281 281 281 282 281 281 281 281 281 280 280 280 279 279 278 278 278
273 273 274 273 272 271 270 269 269 270 270 269 270 270 270 269 269 268 268 269 271 272 274 276 276 275 276 276 275 275 276 275 273 273 273 274 274 275 275 275 274 274 274 274 274 275 275 276 277 277 278 279 279 280 280 280 281 281 281 281 281 281 281 281 281 281 281 280 280 280 280 280 280 280 280 281 281 280 280 280 280 280 279 279 279 278
270 271 271 270 269 269 268 268 269 270 270 270 270 271 271 270 268 268 270 272 274 274 276 278 276 274 276 277 276 275 275 274 274 274 275 275 275 275 275 275 275 276 276 277 277 278 278 279 279 280 280 281 281 281 281 281 281 281 281 281 281 281 281 281 280 280 280 280 280 280 279 279 279 280 280 280 280 280 280 279 279 279 279 279 278 278
270 270 270 269 269 269 269 269 269 269 269 269 269 270 271 271 270 270 272 273 273 275 277 277 276 276 277 277 276 274 273 274 274 275 275 275 275 275 276 276 277 278 278 279 279 280 280 281 281 281 281 282 282 282 282 281 281 281 281 281 281 281 281 281 281 281 281 281 281 281 281 281 281 281 281 281 281 280 280 280 280 279 279 279 278 278
270 270 270 270 270 270 270 270 269 269 268 267 269 271 272 272 272 272 272 271 273 275 276 275 275 277 277 275 274 273 273 274 274 274 274 275 275 276 276 277 278 279 280 280 281 281 281 282 282 282 282 282 282 282 282 282 282 282 282 282 282 282 282 282 282 283 283 283 283 283 283 283 283 283 283 283 283 283 283 283 282 282 282 281 280 280
270 270 270 270 270 270 270 269 269 269 268 268 272 274 274 273 272 271 270 271 273 274 275 275 276 277 276 274 273 274 274 274 275 275 276 276 277 277 278 279 280 280 280 281 281 282 282 282 282 282 282 282 282 283 283 283 283 284 284 284 284 284 284 284 285 285 286 286 286 286 287 287 287 287 287 287 287 286 286 286 286 285 285 284 284 283
269 270 270 271 271 271 270 270 270 267 267 271 276 276 273 272 271 272 273 273 274 274 275 276 276 276 276 275 275 275 275 276 277 277 278 278 279 280 280 280 281 281 282 282 283 283 283 283 283 283 284 284 284 284 285 285 285 285 285 285 285 285 286 286 287 287 288 288 289 289 289 289 289 289 289 289 289 289 288 288 288 287 287 286 286 285
269 270 270 270 271 271 270 269 268 267 270 275 275 272 272 272 273 275 275 273 273 274 275 275 275 276 276 277 277 277 278 278 279 279 280 281 281 282 282 282 283 283 284 284 285 285 285 285 285 285 286 286 287 287 286 286 286 286 286 286 286 286 287 287 288 288 289 289 289 290 290 290 290 290 290 290 290 290 290 290 289 289 288 288 288 287
269 270 270 270 270 271 270 269 268 270 272 273 273 274 275 275 275 274 272 272 273 274 274 274 275 277 278 278 279 279 280 280 281 282 282 283 283 283 283 284 285 285 285 286 286 286 286 286 287 287 288 288 287 287 286 286 286 285 285 285 286 286 286 287 287 288 288 289 289 290 290 290 290 291 291 291 291 291 291 291 290 290 289 289 289 288
268 268 269 270 270 271 272 272 272 273 273 273 276 278 278 276 275 273 272 272 273 273 274 276 277 278 279 280 280 281 282 283 283 284 285 285 285 285 285 285 286 286 287 287 287 287 287 288 288 288 288 288 287 286 286 286 285 285 285 285 285 285 286 287 287 288 289 289 290 290 290 290 291 291 291 292 292 292 292 292 291 291 290 290 289 289
268 268 269 270 270 270 272 273 274 275 276 278 279 278 277 276 276 276 275 274 273 274 275 277 278 279 279 280 282 283 284 285 286 287 286 286 286 286 287 287 288 288 288 288 288 289 289 289 289 288 287 286 286 285 285 285 284 284 284 284 284 285 286 287 288 289 290 290 290 290 291 291 292 292 293 293 293 293 293 292 292 291 291 291 290 290
269 269 269 269 270 271 273 274 275 276 279 281 279 277 276 276 276 276 276 276 277 277 276 276 278 279 280 281 283 284 285 287 288 288 288 287 288 288 289 289 289 289 289 289 289 289 289 289 288 287 286 285 284 284 284 283 283 283 283 283 284 285 287 288 289 290 290 290 290 291 291 292 293 293 294 294 294 294 293 293 292 292 292 292 292 292
268 269 268 269 271 273 273 274 274 276 279 281 280 278 278 276 275 275 277 279 280 278 277 278 279 280 282 283 284 286 287 288 289 289 288 289 289 289 289 289 289 290 290 290 290 290 289 288 287 286 285 284 283 283 283 282 282 283 283 284 285 286 288 289 290 290 290 290 291 292 293 293 294 295 295 295 295 294 294 294 294 294 294 294 294 294
268 268 268 269 271 272 272 274 275 276 279 281 281 280 278 276 275 276 279 282 281 279 279 281 282 282 284 285 286 287 288 288 288 288 288 289 289 289 289 290 290 291 291 291 290 289 288 286 285 284 283 283 283 283 283 283 283 283 284 285 286 287 289 290 290 291 291 292 292 293 294 295 295 296 296 296 296 295 296 296 296 296 296 296 296 296
268 269 269 270 272 272 273 275 276 277 280 282 281 279 277 277 278 280 281 281 280 281 282 282 283 285 286 286 287 288 288 288 288 288 288 288 289 289 290 291 291 292 292 291 289 288 286 285 284 283 283 282 282 283 283 283 283 284 285 286 287 289 290 290 291 291 292 293 294 295 296 296 297 297 297 297 297 297 298 298 298 298 298 298 298 297
268 269 270 271 273 273 274 275 276 279 281 280 278 277 278 279 281 282 282 281 281 282 282 283 284 286 286 287 287 287 287 288 288 288 288 288 289 290 290 291 292 292 291 289 287 286 284 283 283 282 282 282 282 282 283 283 284 285 286 287 289 290 291 291 292 293 294 294 295 296 297 298 298 299 299 299 299 299 300 300 300 300 300 300 299 298
268 269 272 273 273 273 274 275 277 279 280 278 278 279 280 281 282 282 282 282 282 282 282 283 285 285 286 286 286 286 287 287 287 287 287 288 289 290 291 291 291 290 288 286 284 282 282 281 281 281 282 282 283 284 284 285 286 287 288 289 290 291 292 293 293 294 295 296 297 298 298 299 299 300 300 300 300 301 301 301 301 301 301 300 299 298
270 271 272 273 273 273 274 275 277 278 278 279 280 281 281 282 282 282 282 283 283 283 283 284 284 285 286 286 286 286 286 287 287 287 288 289 290 291 291 291 290 289 286 284 283 282 282 282 282 283 283 284 285 286 287 287 288 289 290 291 291 292 293 294 295 296 297 298 299 299 300 300 300 300 300 300 300 301 302 302 301 301 300 300 299 298
271 272 272 271 272 273 274 275 276 278 279 281 282 282 281 281 282 283 284 284 284 284 284 285 286 286 286 286 286 287 287 288 288 289 290 291 292 291 291 291 290 288 287 285 285 284 284 284 284 284 285 286 287 288 288 289 290 290 291 292 292 293 294 295 296 297 298 299 300 300 300 300 300 300 300 300 300 301 302 301 300 300 300 299 298 299
271 272 272 272 272 273 274 276 278 280 281 281 281 281 281 282 283 284 284 284 284 285 286 287 287 286 286 286 287 288 288 289 290 291 292 292 291 291 291 290 289 288 287 286 286 286 286 285 286 286 287 287 288 289 290 290 291 291 292 292 293 294 295 296 297 298 300 300 300 300 300 299 299 299 299 299 300 301 300 298 298 299 299 299 299 299
271 271 271 273 274 275 276 278 280 281 280 280 281 282 284 284 285 284 283 284 285 287 288 288 287 287 287 288 288 289 290 291 291 292 291 291 291 291 291 290 288 287 286 286 286 285 285 285 286 287 287 288 289 290 290 291 291 292 292 293 294 295 296 297 298 300 301 301 300 300 299 299 300 300 300 300 300 299 297 296 297 298 299 300 301 301
270 271 273 275 276 276 277 279 280 280 279 280 282 285 287 287 286 285 285 286 287 288 288 288 288 288 289 289 290 291 291 291 291 290 289 290 291 290 289 288 286 285 284 284 284 284 285 286 287 288 288 289 290 291 291 292 292 292 293 294 295 296 297 298 299 301 301 300 300 299 300 300 301 301 301 300 298 295 294 295 296 297 299 301 304 304
271 274 276 277 275 275 277 279 280 279 280 281 284 286 287 287 287 287 288 290 291 290 289 288 288 288 289 290 290 290 290 290 289 288 288 288 288 287 287 286 285 285 285 284 284 285 286 287 288 289 289 290 291 291 291 292 292 292 293 294 295 296 298 299 300 301 301 300 299 300 300 301 302 301 300 297 293 291 292 294 296 298 300 302 304 306
275 277 276 275 274 276 278 280 280 280 282 285 285 284 285 286 288 289 291 292 292 291 289 289 289 289 289 288 288 287 288 288 287 286 287 287 287 287 288 288 288 288 287 287 288 288 289 289 290 290 290 290 291 291 291 291 292 293 294 295 296 297 299 300 300 301 300 300 300 300 301 301 301 300 296 291 288 287 288 291 295 300 303 305 305 306
Height
5811 5810 5810 5812 5812 5810 5810 5810 5810 5809 5808 5807 5807 5806 5806 5806 5806 5805 5804 5803 5802 5802 5803 5802 5801 5801 5802 5803 5802 5800 5800 5800 5799 5798 5798 5798 5798 5798 5798 5797 5797 5797 5796 5796 5796 5795 5794 5794 5793 5792 5791 5791 5790 5789 5788 5787 5787 5786 5785 5784 5783 5783 5782 5782 5781 5781 5780 5780 5780 5779 5779 5779 5779 5779 5779 5779 5779 5779 5779 5778 5778 5778 5778 5778 5778 5777
5806 5805 5806 5807 5805 5805 5805 5805 5805 5804 5804 5803 5802 5802 5802 5802 5801 5801 5800 5799 5798 5798 5798 5798 5798 5798 5798 5798 5798 5797 5796 5795 5795 5794 5794 5794 5793 5792 5792 5791 5791 5791 5790 5790 5790 5790 5790 5789 5788 5787 5787 5786 5786 5785 5784 5783 5782 5781 5780 5779 5778 5777 5776 5776 5775 5775 5775 5775 5774 5774 5773 5773 5773 5773 5773 5773 5773 5773 5772 5772 5772 5772 5772 5772 5771 5771
5801 5801 5802 5801 5800 5800 5800 5800 5800 5800 5799 5799 5798 5798 5798 5797 5797 5796 5796 5795 5795 5794 5794 5793 5793 5794 5794 5793 5793 5793 5792 5791 5790 5790 5791 5791 5789 5788 5787 5786 5785 5784 5783 5782 5782 5782 5782 5782 5782 5781 5781 5780 5779 5779 5778 5778 5777 5776 5774 5773 5772 5772 5771 5770 5769 5768 5769 5769 5769 5768 5768 5768 5767 5767 5767 5767 5767 5767 5767 5766 5766 5766 5765 5765 5765 5765
5797 5797 5797 5797 5796 5796 5795 5795 5795 5795 5795 5794 5794 5794 5794 5794 5793 5792 5792 5791 5790 5789 5789 5788 5788 5789 5790 5788 5787 5788 5787 5786 5785 5784 5784 5784 5783 5782 5781 5780 5779 5777 5776 5775 5774 5773 5772 5772 5772 5772 5772 5772 5771 5771 5770 5770 5770 5770 5769 5768 5767 5766 5765 5764 5763 5762 5762 5762 5763 5763 5762 5762 5762 5761 5761 5761 5761 5761 5760 5760 5760 5760 5760 5759 5759 5758
5794 5793 5793 5793 5793 5792 5791 5791 5791 5791 5791 5790 5790 5790 5790 5789 5788 5788 5787 5787 5786 5785 5784 5782 5781 5782 5784 5783 5782 5782 5781 5780 5780 5778 5777 5776 5775 5774 5773 5773 5771 5770 5769 5768 5767 5766 5766 5765 5764 5764 5764 5764 5764 5764 5763 5763 5763 5763 5762 5762 5761 5760 5759 5758 5758 5757 5756 5756 5756 5757 5757 5757 5756 5756 5755 5755 5754 5754 5754 5754 5754 5754 5754 5753 5753 5752
5790 5789 5789 5789 5788 5788 5788 5787 5787 5787 5786 5786 5786 5786 5785 5785 5784 5783 5782 5781 5781 5781 5780 5779 5776 5776 5778 5777 5776 5776 5775 5774 5773 5772 5771 5769 5768 5768 5767 5766 5765 5764 5763 5762 5761 5760 5759 5759 5758 5757 5757 5757 5757 5757 5757 5756 5756 5756 5756 5756 5755 5754 5753 5752 5752 5751 5751 5750 5750 5750 5750 5750 5750 5749 5749 5748 5748 5748 5747 5747 5747 5747 5747 5747 5746 5746
5785 5785 5785 5784 5784 5784 5784 5783 5783 5783 5783 5783 5783 5782 5780 5780 5780 5778 5778 5777 5776 5775 5775 5774 5772 5771 5772 5771 5770 5769 5768 5768 5768 5767 5765 5764 5763 5762 5761 5759 5758 5757 5756 5755 5755 5754 5752 5752 5752 5751 5750 5750 5750 5750 5750 5750 5750 5750 5750 5750 5749 5748 5747 5746 5745 5745 5745 5744 5744 5743 5743 5743 5743 5742 5742 5742 5741 5741 5740 5740 5740 5739 5739 5739 5739 5739
5780 5780 5780 5779 5779 5779 5779 5779 5778 5778 5779 5779 5778 5777 5776 5775 5774 5773 5773 5772 5771 5770 5768 5768 5768 5767 5766 5766 5764 5762 5762 5763 5762 5761 5760 5758 5757 5756 5754 5753 5751 5750 5750 5749 5748 5748 5746 5745 5745 5745 5744 5743 5743 5743 5743 5743 5743 5743 5742 5743 5743 5742 5741 5740 5739 5738 5738 5737 5736 5736 5736 5736 5736 5736 5735 5735 5734 5734 5733 5733 5732 5732 5732 5732 5732 5731
5775 5775 5775 5775 5775 5774 5774 5774 5774 5774 5773 5773 5773 5772 5771 5771 5769 5769 5768 5766 5765 5764 5763 5763 5764 5761 5760 5760 5757 5755 5755 5756 5755 5754 5753 5751 5750 5749 5748 5746 5745 5744 5744 5743 5741 5741 5740 5739 5738 5738 5738 5737 5736 5736 5736 5736 5736 5736 5735 5735 5735 5735 5735 5734 5733 5732 5731 5730 5729 5729 5729 5728 5728 5728 5728 5727 5727 5726 5726 5725 5725 5724 5724 5723 5723 5723
5770 5771 5770 5770 5771 5770 5770 5770 5770 5769 5768 5767 5767 5766 5765 5764 5763 5763 5762 5761 5760 5758 5759 5760 5758 5756 5755 5755 5753 5750 5750 5750 5749 5748 5747 5745 5743 5742 5741 5740 5740 5738 5737 5737 5735 5734 5734 5733 5732 5731 5731 5730 5730 5729 5729 5729 5729 5729 5729 5728 5728 5728 5728 5727 5727 5725 5724 5723 5722 5723 5723 5721 5720 5720 5719 5719 5719 5719 5718 5718 5717 5716 5716 5715 5715 5715
5765 5765 5764 5765 5766 5765 5765 5765 5765 5764 5763 5763 5761 5760 5759 5757 5757 5756 5756 5756 5753 5752 5755 5755 5752 5750 5749 5750 5749 5747 5745 5745 5744 5742 5740 5739 5737 5736 5735 5734 5734 5732 5731 5730 5729 5727 5727 5727 5726 5725 5724 5724 5723 5722 5722 5722 5722 5722 5721 5721 5721 5721 5720 5720 5719 5719 5717 5716 5715 5716 5716 5715 5714 5712 5711 5711 5711 5710 5710 5710 5710 5709 5708 5707 5707 5706
5759 5759 5759 5760 5760 5760 5760 5759 5759 5758 5758 5757 5755 5755 5753 5751 5751 5750 5749 5750 5747 5748 5751 5749 5746 5744 5744 5746 5746 5742 5741 5740 5737 5735 5733 5732 5731 5730 5729 5728 5727 5726 5725 5724 5722 5721 5720 5720 5720 5719 5717 5717 5716 5716 5715 5714 5714 5714 5714 5714 5713 5713 5712 5712 5712 5711 5710 5709 5708 5708 5708 5708 5707 5706 5704 5703 5702 5702 5701 5701 5702 5702 5701 5700 5699 5698
5753 5753 5754 5753 5754 5754 5754 5753 5753 5752 5752 5751 5750 5749 5747 5746 5744 5743 5744 5743 5742 5744 5745 5741 5739 5737 5738 5742 5741 5739 5738 5735 5731 5729 5727 5726 5725 5724 5723 5722 5721 5719 5718 5717 5717 5716 5715 5713 5712 5712 5711 5710 5709 5709 5708 5707 5707 5706 5706 5706 5705 5705 5705 5704 5703 5703 5702 5702 5701 5701 5700 5699 5699 5698 5697 5696 5695 5694 5693 5692 5692 5692 5692 5692 5692 5691
5747 5749 5749 5749 5749 5749 5748 5748 5747 5746 5745 5745 5744 5743 5741 5740 5737 5736 5738 5737 5736 5738 5737 5735 5733 5730 5733 5737 5736 5734 5733 5729 5726 5724 5722 5720 5719 5718 5717 5716 5714 5713 5712 5711 5710 5709 5708 5707 5706 5705 5704 5703 5702 5701 5701 5700 5699 5698 5698 5698 5697 5697 5696 5696 5695 5694 5694 5693 5693 5692 5692 5691 5690 5690 5689 5688 5687 5686 5685 5684 5683 5683 5683 5683 5683 5683
5741 5743 5744 5744 5744 5744 5743 5742 5741 5739 5738 5738 5738 5736 5734 5734 5732 5730 5732 5730 5728 5730 5730 5729 5726 5724 5727 5730 5729 5728 5726 5723 5720 5718 5716 5715 5713 5711 5710 5709 5708 5707 5706 5704 5703 5702 5701 5700 5699 5698 5697 5696 5695 5693 5693 5692 5691 5690 5689 5689 5689 5688 5688 5687 5686 5686 5685 5684 5683 5683 5682 5682 5681 5681 5680 5679 5678 5678 5677 5676 5675 5674 5674 5674 5673 5674
5734 5736 5738 5737 5738 5738 5736 5735 5735 5733 5732 5731 5731 5729 5728 5729 5727 5723 5722 5722 5721 5721 5722 5723 5719 5718 5721 5722 5722 5720 5718 5716 5714 5712 5711 5709 5707 5705 5704 5703 5701 5700 5699 5698 5697 5695 5694 5693 5692 5691 5690 5688 5687 5686 5685 5684 5683 5683 5682 5681 5680 5680 5679 5679 5678 5677 5676 5675 5674 5673 5673 5672 5672 5671 5670 5670 5669 5668 5667 5666 5666 5665 5665 5664 5664 5663
5727 5728 5730 5729 5729 5730 5729 5728 5727 5727 5726 5724 5724 5724 5722 5722 5720 5716 5713 5715 5714 5710 5713 5718 5714 5712 5713 5714 5715 5713 5711 5710 5707 5705 5704 5702 5700 5699 5697 5696 5694 5693 5692 5691 5690 5688 5687 5686 5685 5684 5682 5681 5680 5678 5677 5676 5676 5675 5674 5673 5672 5671 5670 5669 5669 5668 5667 5666 5665 5664 5664 5663 5662 5662 5661 5660 5659 5658 5658 5657 5656 5655 5655 5654 5654 5653
5720 5721 5723 5722 5720 5721 5721 5720 5719 5719 5719 5717 5718 5718 5716 5713 5712 5710 5706 5706 5706 5701 5704 5710 5709 5707 5706 5707 5709 5708 5705 5704 5701 5698 5697 5695 5694 5692 5690 5688 5687 5686 5685 5683 5682 5681 5680 5679 5678 5676 5675 5674 5672 5671 5670 5669 5668 5667 5666 5665 5663 5662 5661 5660 5659 5658 5657 5656 5655 5655 5654 5653 5653 5652 5652 5651 5650 5649 5648 5647 5646 5645 5644 5644 5643 5643
5714 5713 5716 5717 5713 5712 5713 5712 5711 5711 5711 5711 5709 5709 5709 5706 5704 5704 5700 5699 5699 5694 5693 5699 5702 5701 5700 5700 5701 5700 5698 5697 5694 5692 5690 5688 5687 5685 5683 5681 5680 5679 5678 5676 5675 5674 5672 5672 5671 5670 5669 5668 5666 5664 5663 5662 5660 5659 5658 5657 5655 5654 5652 5651 5650 5649 5648 5647 5646 5645 5644 5644 5643 5643 5642 5641 5640 5639 5638 5637 5636 5635 5634 5634 5633 5631
5707 5705 5707 5711 5709 5705 5705 5704 5704 5704 5703 5702 5700 5699 5700 5699 5697 5696 5693 5692 5691 5687 5685 5687 5691 5695 5697 5694 5692 5691 5690 5689 5687 5685 5683 5681 5680 5678 5676 5675 5673 5672 5671 5669 5668 5666 5665 5665 5664 5663 5662 5661 5659 5657 5655 5653 5652 5651 5649 5648 5647 5645 5644 5642 5641 5640 5639 5638 5637 5636 5635 5634 5633 5633 5632 5631 5630 5629 5628 5627 5626 5625 5624 5623 5622 5621
5699 5696 5698 5704 5703 5699 5697 5697 5697 5697 5694 5692 5692 5691 5692 5691 5689 5687 5685 5685 5683 5679 5678 5677 5678 5686 5692 5688 5683 5682 5682 5680 5679 5678 5677 5675 5673 5671 5669 5667 5666 5665 5664 5663 5661 5659 5658 5658 5657 5655 5654 5652 5651 5649 5647 5645 5643 5642 5640 5639 5638 5637 5635 5634 5632 5631 5630 5628 5627 5626 5626 5624 5624 5623 5622 5621 5620 5619 5618 5617 5616 5615 5614 5612 5611 5610
5691 5688 5689 5694 5695 5693 5690 5688 5689 5688 5686 5685 5685 5685 5685 5683 5682 5678 5676 5678 5677 5671 5670 5668 5665 5675 5685 5681 5675 5675 5674 5672 5671 5671 5670 5668 5666 5663 5662 5660 5659 5658 5657 5655 5654 5652 5651 5650 5648 5647 5645 5643 5642 5640 5638 5636 5635 5633 5632 5631 5630 5628 5627 5625 5624 5622 5621 5620 5618 5617 5616 5615 5614 5613 5612 5610 5609 5608 5607 5606 5605 5604 5603 5602 5599 5598
5683 5681 5680 5683 5687 5687 5682 5679 5680 5680 5679 5678 5678 5679 5679 5676 5674 5672 5668 5671 5671 5664 5663 5660 5655 5663 5675 5673 5667 5667 5667 5665 5664 5664 5663 5660 5658 5656 5654 5653 5652 5650 5649 5648 5646 5644 5643 5641 5640 5638 5636 5634 5633 5631 5629 5628 5626 5625 5624 5622 5620 5619 5617 5615 5614 5613 5612 5611 5609 5608 5607 5605 5604 5602 5601 5600 5598 5597 5595 5594 5593 5592 5591 5590 5589 5587
5676 5674 5672 5673 5677 5679 5675 5671 5670 5671 5673 5672 5671 5672 5671 5669 5668 5665 5661 5661 5660 5657 5658 5653 5647 5654 5664 5664 5661 5660 5659 5658 5657 5655 5654 5652 5650 5649 5647 5645 5644 5642 5641 5640 5638 5636 5635 5633 5631 5629 5627 5625 5624 5622 5621 5619 5618 5616 5614 5613 5610 5608 5606 5605 5604 5602 5601 5600 5598 5597 5596 5594 5593 5591 5590 5588 5587 5585 5583 5582 5581 5579 5578 5577 5576 5575
5668 5666 5664 5664 5665 5667 5668 5665 5662 5663 5666 5665 5663 5664 5663 5662 5661 5657 5655 5652 5647 5648 5652 5647 5642 5648 5654 5655 5656 5654 5650 5650 5649 5646 5645 5644 5641 5640 5639 5637 5635 5634 5633 5631 5630 5628 5626 5624 5623 5621 5618 5617 5615 5613 5612 5610 5609 5607 5605 5603 5600 5598 5596 5594 5593 5591 5589 5587 5586 5584 5583 5582 5581 5579 5578 5576 5575 5573 5570 5569 5567 5566 5564 5563 5562 5562
5661 5658 5657 5657 5655 5656 5659 5659 5656 5656 5657 5656 5656 5656 5656 5656 5654 5649 5647 5642 5636 5638 5642 5639 5638 5643 5646 5647 5647 5645 5643 5642 5641 5638 5637 5636 5633 5631 5630 5628 5627 5626 5624 5623 5621 5620 5618 5616 5614 5612 5610 5608 5606 5605 5603 5601 5599 5597 5595 5592 5589 5587 5584 5582 5581 5579 5577 5575 5573 5572 5570 5568 5567 5566 5564 5563 5561 5559 5557 5555 5554 5552 5550 5548 5548 5547
5651 5650 5649 5649 5647 5647 5649 5650 5648 5647 5648 5648 5649 5649 5649 5648 5646 5642 5637 5631 5629 5630 5630 5633 5635 5635 5638 5642 5638 5634 5634 5633 5631 5630 5629 5627 5625 5623 5621 5620 5619 5618 5617 5615 5613 5611 5609 5607 5605 5603 5601 5599 5598 5596 5594 5591 5589 5587 5584 5580 5577 5575 5573 5571 5569 5568 5566 5564 5561 5559 5557 5555 5553 5552 5550 5548 5546 5544 5543 5541 5539 5538 5536 5534 5533 5532
5642 5640 5641 5641 5639 5640 5640 5639 5638 5638 5639 5640 5641 5643 5644 5642 5638 5634 5627 5624 5625 5622 5619 5627 5630 5624 5628 5637 5631 5624 5624 5624 5622 5621 5619 5618 5616 5615 5613 5612 5611 5610 5609 5607 5605 5603 5601 5599 5596 5594 5592 5590 5588 5586 5584 5581 5579 5576 5573 5570 5566 5564 5562 5560 5558 5556 5554 5552 5550 5547 5545 5543 5541 5538 5536 5533 5531 5529 5527 5525 5524 5522 5520 5518 5517 5515
5633 5631 5633 5633 5631 5632 5631 5629 5629 5630 5630 5631 5633 5635 5637 5636 5631 5624 5619 5620 5621 5614 5612 5621 5622 5615 5619 5627 5624 5617 5615 5614 5612 5611 5610 5610 5609 5607 5605 5604 5603 5601 5600 5598 5596 5594 5592 5590 5588 5585 5582 5581 5579 5576 5573 5571 5568 5565 5562 5559 5556 5554 5551 5549 5546 5544 5542 5540 5538 5536 5534 5532 5529 5526 5523 5521 5518 5516 5514 5511 5509 5507 5505 5502 5500 5499
5625 5623 5624 5624 5622 5623 5622 5620 5621 5621 5620 5621 5625 5627 5628 5628 5623 5617 5614 5617 5614 5606 5607 5612 5609 5607 5613 5616 5613 5610 5606 5602 5602 5602 5602 5602 5601 5599 5597 5595 5594 5592 5591 5590 5587 5585 5584 5581 5579 5576 5573 5571 5568 5565 5563 5560 5557 5554 5551 5548 5545 5542 5539 5537 5534 5531 5529 5527 5525 5523 5521 5519 5516 5513 5511 5508 5506 5503 5501 5498 5496 5493 5491 5488 5486 5484
5617 5615 5614 5614 5613 5613 5615 5614 5613 5612 5610 5611 5616 5619 5619 5617 5614 5613 5612 5611 5606 5600 5602 5601 5595 5599 5609 5608 5601 5600 5598 5594 5594 5595 5595 5595 5593 5592 5589 5587 5586 5584 5582 5580 5578 5576 5574 5572 5569 5566 5563 5561 5558 5555 5552 5549 5546 5543 5540 5537 5533 5530 5527 5524 5521 5518 5515 5513 5511 5509 5506 5504 5502 5499 5496 5493 5491 5489 5487 5485 5482 5480 5478 5476 5473 5471
5609 5607 5606 5606 5603 5604 5608 5607 5604 5604 5601 5601 5606 5612 5613 5610 5607 5606 5605 5602 5599 5595 5593 5590 5587 5592 5600 5598 5591 5590 5589 5588 5588 5588 5587 5587 5586 5584 5582 5579 5577 5575 5573 5571 5569 5567 5564 5562 5559 5556 5553 5551 5547 5544 5541 5537 5534 5531 5528 5524 5520 5517 5513 5510 5507 5504 5501 5498 5496 5494 5491 5489 5487 5484 5481 5479 5477 5475 5472 5470 5468 5465 5463 5462 5460 5457
5602 5599 5598 5598 5594 5595 5599 5597 5596 5595 5589 5590 5601 5607 5606 5603 5598 5595 5595 5596 5594 5588 5582 5581 5581 5584 5587 5586 5583 5583 5582 5580 5580 5580 5579 5578 5577 5575 5573 5571 5568 5566 5564 5562 5560 5558 5555 5552 5549 5545 5543 5540 5536 5533 5529 5525 5522 5519 5515 5511 5507 5504 5500 5497 5494 5492 5489 5486 5483 5481 5478 5476 5474 5471 5469 5466 5464 5462 5460 5457 5455 5452 5449 5448 5446 5444
5594 5592 5591 5589 5585 5586 5590 5589 5587 5582 5578 5586 5598 5600 5597 5593 5588 5586 5588 5590 5586 5580 5575 5574 5574 5575 5575 5575 5575 5575 5574 5572 5571 5571 5570 5569 5568 5566 5563 5560 5558 5556 5554 5552 5550 5547 5544 5540 5537 5533 5530 5527 5524 5521 5517 5513 5510 5506 5502 5499 5495 5492 5489 5486 5483 5481 5478 5475 5472 5470 5468 5465 5463 5461 5458 5456 5453 5451 5448 5446 5443 5440 5437 5435 5433 5431
5586 5585 5583 5581 5577 5577 5581 5581 5573 5568 5574 5585 5591 5590 5587 5584 5581 5579 5579 5580 5578 5573 5569 5566 5565 5566 5566 5565 5566 5566 5565 5564 5561 5561 5560 5559 5558 5556 5552 5550 5548 5546 5544 5541 5538 5535 5532 5528 5524 5520 5517 5514 5511 5508 5504 5501 5498 5494 5491 5487 5484 5482 5479 5477 5474 5471 5469 5466 5463 5461 5458 5455 5453 5451 5448 5446 5443 5440 5438 5434 5431 5428 5425 5423 5420 5418
5578 5575 5574 5573 5570 5568 5569 5569 5563 5562 5570 5579 5580 5580 5580 5576 5574 5570 5567 5571 5573 5567 5560 5558 5558 5558 5557 5556 5557 5556 5555 5554 5552 5551 5550 5549 5547 5545 5542 5539 5538 5536 5533 5529 5526 5523 5519 5515 5512 5508 5505 5501 5498 5495 5492 5489 5487 5484 5481 5478 5475 5473 5471 5468 5466 5464 5461 5458 5455 5452 5449 5446 5444 5441 5438 5436 5433 5430 5427 5423 5420 5417 5413 5411 5409 5406
5570 5567 5567 5565 5562 5562 5559 5557 5556 5555 5561 5571 5575 5574 5570 5566 5563 5558 5555 5562 5568 5560 5552 5550 5550 5550 5549 5547 5547 5546 5545 5543 5542 5541 5540 5537 5536 5534 5531 5529 5527 5524 5521 5518 5514 5511 5507 5504 5500 5496 5493 5490 5486 5483 5481 5479 5477 5474 5472 5470 5467 5465 5463 5461 5459 5456 5453 5450 5447 5444 5441 5438 5435 5432 5429 5426 5423 5420 5416 5412 5409 5405 5401 5399 5397 5395
5561 5560 5560 5556 5553 5555 5552 5548 5548 5546 5550 5564 5570 5565 5559 5554 5551 5547 5543 5550 5559 5555 5546 5542 5541 5540 5540 5539 5538 5537 5534 5532 5532 5531 5527 5525 5524 5523 5520 5518 5515 5512 5509 5505 5502 5499 5495 5492 5489 5485 5482 5479 5476 5474 5472 5470 5468 5466 5464 5462 5460 5458 5456 5454 5451 5448 5445 5442 5438 5435 5432 5429 5426 5423 5420 5416 5413 5409 5406 5402 5398 5394 5390 5387 5385 5384
5553 5552 5553 5548 5545 5548 5546 5541 5540 5538 5543 5555 5558 5554 5550 5546 5542 5538 5532 5538 5549 5547 5536 5534 5534 5532 5532 5531 5530 5528 5525 5522 5523 5520 5513 5511 5513 5511 5508 5506 5503 5500 5497 5494 5491 5488 5485 5482 5479 5476 5473 5470 5468 5465 5463 5462 5460 5457 5456 5454 5452 5451 5449 5446 5444 5440 5437 5434 5430 5426 5423 5420 5417 5413 5410 5406 5402 5398 5395 5391 5387 5383 5380 5376 5373 5371
5546 5544 5544 5541 5540 5542 5539 5533 5532 5532 5537 5545 5545 5543 5540 5536 5532 5530 5526 5530 5537 5533 5526 5526 5526 5524 5523 5522 5520 5519 5517 5514 5512 5508 5501 5499 5500 5499 5496 5494 5491 5488 5486 5483 5480 5477 5474 5471 5469 5466 5464 5461 5459 5458 5456 5454 5452 5450 5448 5446 5444 5443 5441 5438 5436 5432 5429 5425 5422 5418 5414 5411 5407 5404 5400 5396 5392 5389 5384 5380 5376 5373 5369 5365 5362 5359
5539 5537 5536 5535 5535 5535 5531 5525 5524 5526 5532 5535 5533 5531 5529 5524 5521 5522 5523 5523 5522 5518 5517 5517 5515 5514 5513 5511 5509 5509 5508 5505 5502 5498 5493 5490 5488 5487 5486 5483 5480 5478 5475 5472 5470 5467 5464 5462 5460 5458 5455 5453 5451 5450 5448 5446 5444 5442 5440 5439 5437 5435 5433 5430 5427 5424 5420 5417 5413 5409 5406 5402 5398 5394 5389 5385 5381 5378 5375 5370 5366 5362 5358 5355 5351 5348
5532 5530 5528 5528 5528 5526 5524 5520 5515 5519 5527 5528 5522 5519 5516 5513 5512 5515 5516 5513 5509 5508 5509 5506 5504 5504 5503 5501 5500 5499 5497 5495 5491 5488 5485 5481 5479 5477 5475 5473 5471 5469 5466 5463 5461 5458 5456 5453 5451 5449 5447 5445 5443 5442 5440 5438 5436 5435 5432 5430 5429 5427 5425 5422 5419 5415 5412 5408 5404 5400 5396 5392 5388 5383 5379 5375 5371 5368 5365 5360 5355 5352 5348 5345 5341 5338
5524 5522 5521 5521 5521 5518 5516 5513 5508 5511 5519 5518 5511 5508 5506 5504 5504 5505 5502 5500 5499 5499 5498 5496 5496 5495 5492 5490 5490 5488 5487 5485 5482 5478 5475 5472 5470 5468 5467 5465 5463 5460 5458 5455 5452 5450 5448 5445 5443 5441 5439 5437 5436 5434 5432 5431 5429 5427 5425 5422 5421 5419 5416 5413 5410 5406 5403 5399 5395 5391 5387 5382 5378 5373 5369 5365 5360 5357 5355 5351 5347 5343 5339 5335 5332 5329
5515 5516 5515 5514 5513 5509 5507 5505 5503 5505 5508 5504 5499 5500 5498 5495 5495 5494 5490 5488 5489 5489 5488 5488 5487 5485 5482 5481 5480 5478 5477 5476 5473 5469 5466 5463 5462 5461 5459 5457 5455 5452 5450 5448 5445 5443 5440 5438 5436 5434 5431 5430 5428 5426 5425 5423 5421 5419 5417 5414 5412 5410 5407 5404 5400 5397 5393 5389 5385 5381 5377 5373 5368 5363 5359 5355 5351 5348 5345 5341 5338 5334 5331 5327 5324 5322
5508 5511 5510 5506 5503 5500 5499 5499 5497 5497 5497 5492 5489 5490 5488 5485 5485 5483 5480 5479 5478 5476 5477 5478 5478 5476 5473 5471 5469 5468 5467 5466 5463 5460 5457 5455 5454 5453 5450 5449 5447 5445 5443 5440 5437 5436 5433 5431 5429 5426 5424 5422 5420 5419 5417 5415 5413 5411 5408 5406 5404 5401 5399 5395 5391 5388 5384 5380 5376 5372 5367 5364 5359 5354 5350 5346 5342 5339 5336 5332 5329 5327 5323 5320 5317 5315
5500 5502 5500 5497 5495 5492 5491 5491 5490 5489 5488 5484 5480 5479 5478 5476 5476 5474 5471 5469 5467 5465 5466 5467 5467 5466 5463 5460 5459 5458 5457 5456 5454 5451 5449 5447 5446 5444 5443 5441 5439 5437 5435 5432 5430 5428 5426 5423 5422 5419 5417 5415 5413 5411 5409 5406 5404 5403 5400 5397 5395 5392 5389 5386 5382 5379 5375 5370 5366 5362 5358 5354 5350 5346 5342 5338 5334 5331 5328 5324 5321 5320 5317 5313 5311 5309
5493 5493 5489 5487 5487 5484 5482 5483 5484 5482 5479 5474 5469 5468 5468 5468 5468 5466 5462 5459 5457 5456 5457 5457 5456 5455 5453 5451 5450 5448 5448 5447 5445 5442 5441 5439 5437 5436 5435 5434 5432 5430 5428 5425 5423 5421 5418 5416 5414 5412 5410 5408 5405 5403 5401 5398 5396 5394 5391 5389 5386 5383 5379 5376 5372 5369 5365 5361 5357 5353 5348 5345 5341 5337 5334 5330 5327 5324 5320 5317 5314 5313 5310 5307 5305 5303
5485 5484 5479 5478 5479 5476 5473 5476 5477 5473 5468 5464 5460 5459 5460 5460 5460 5457 5453 5450 5449 5449 5448 5447 5446 5444 5444 5443 5442 5440 5439 5439 5437 5435 5433 5431 5429 5429 5428 5426 5425 5423 5421 5419 5417 5414 5411 5409 5407 5405 5403 5400 5398 5396 5393 5390 5387 5385 5382 5380 5377 5373 5370 5366 5363 5360 5356 5352 5348 5343 5339 5336 5332 5329 5326 5323 5319 5317 5314 5311 5308 5307 5304 5301 5299 5298
5475 5474 5473 5473 5471 5466 5464 5468 5468 5462 5457 5456 5455 5453 5452 5451 5449 5447 5444 5443 5443 5442 5440 5439 5437 5436 5436 5435 5434 5432 5431 5431 5430 5427 5425 5424 5423 5421 5420 5419 5418 5416 5414 5413 5410 5407 5405 5402 5400 5398 5395 5392 5390 5387 5385 5381 5378 5375 5373 5371 5367 5364 5361 5358 5354 5351 5347 5343 5339 5335 5331 5327 5324 5320 5317 5315 5313 5310 5308 5305 5302 5301 5300 5296 5294 5292
5467 5467 5469 5465 5459 5456 5458 5460 5458 5452 5448 5450 5451 5449 5446 5444 5441 5439 5438 5437 5436 5435 5433 5431 5431 5430 5430 5429 5428 5426 5424 5424 5423 5420 5419 5418 5416 5415 5413 5412 5411 5409 5407 5405 5403 5401 5399 5396 5393 5391 5388 5385 5382 5379 5376 5373 5369 5366 5364 5361 5358 5355 5352 5349 5346 5342 5338 5334 5330 5326 5322 5319 5316 5312 5309 5307 5306 5305 5304 5301 5296 5294 5293 5292 5289 5287
5461 5462 5460 5452 5447 5448 5451 5452 5449 5444 5442 5444 5446 5444 5441 5438 5435 5433 5433 5431 5430 5428 5426 5424 5424 5424 5424 5423 5421 5420 5418 5418 5416 5414 5413 5412 5410 5408 5407 5405 5403 5402 5400 5398 5396 5394 5391 5389 5387 5384 5380 5378 5375 5372 5368 5364 5361 5358 5356 5352 5349 5346 5343 5340 5337 5334 5330 5325 5322 5318 5314 5311 5308 5305 5302 5301 5300 5300 5299 5298 5294 5289 5286 5285 5284 5283